Time,TemperatureF,DewpointF,PressureIn,WindDirection,WindDirectionDegrees,WindSpeedMPH,WindSpeedGustMPH,Humidity,HourlyPrecipIn,Conditions,Clouds,dailyrainin,SoftwareType,DateUTC
2013-09-15 07:12:00,56.3,55.5,30.08,ENE,78,0.0,10.0,97,0.00,,---,0.00,VWS V13.01,2013-09-15 12:12:00,
2013-09-15 07:13:00,56.4,55.6,30.08,ENE,78,0.0,10.0,97,0.00,,---,0.00,VWS V13.01,2013-09-15 12:13:00,
2013-09-15 07:14:00,56.5,55.7,30.08,ENE,78,0.0,10.0,97,0.00,,---,0.00,VWS V13.01,2013-09-15 12:14:00,
2013-09-15 07:15:00,56.6,55.8,30.08,ENE,78,0.0,10.0,97,0.00,,---,0.00,VWS V13.01,2013-09-15 12:15:00,
2013-09-15 07:16:00,56.6,55.8,30.08,ENE,78,0.0,10.0,97,0.00,,---,0.00,VWS V13.01,2013-09-15 12:16:00,
2013-09-15 07:17:00,56.7,55.9,30.08,ENE,78,0.0,10.0,97,0.00,,---,0.00,VWS V13.01,2013-09-15 12:17:00,
2013-09-15 07:18:00,56.8,56.0,30.08,ENE,78,0.0,10.0,97,0.00,,---,0.00,VWS V13.01,2013-09-15 12:18:00,
2013-09-15 07:19:00,56.8,56.0,30.08,ENE,78,1.0,10.0,97,0.00,,---,0.00,VWS V13.01,2013-09-15 12:19:00,
2013-09-15 07:20:00,56.9,56.1,30.08,ENE,78,0.0,10.0,97,0.00,,---,0.00,VWS V13.01,2013-09-15 12:20:00,
2013-09-15 07:21:00,56.9,56.1,30.08,ENE,78,0.0,10.0,97,0.00,,---,0.00,VWS V13.01,2013-09-15 12:21:00,
2013-09-15 07:22:00,57.0,56.2,30.08,ENE,78,1.0,10.0,97,0.00,,---,0.00,VWS V13.01,2013-09-15 12:22:00,
2013-09-15 07:23:00,57.1,56.3,30.08,ENE,78,0.0,10.0,97,0.00,,---,0.00,VWS V13.01,2013-09-15 12:23:00,
2013-09-15 07:24:00,57.2,56.4,30.08,ENE,78,0.0,10.0,97,0.00,,---,0.00,VWS V13.01,2013-09-15 12:24:00,
2013-09-15 07:25:00,57.2,56.4,30.08,ENE,78,0.0,10.0,97,0.00,,---,0.00,VWS V13.01,2013-09-15 12:25:00,
2013-09-15 07:26:00,57.3,56.5,30.08,ENE,78,0.0,10.0,97,0.00,,---,0.00,VWS V13.01,2013-09-15 12:26:00,
2013-09-15 07:27:00,57.4,56.6,30.08,ENE,78,0.0,10.0,97,0.00,,---,0.00,VWS V13.01,2013-09-15 12:27:00,
2013-09-15 07:28:00,57.5,56.7,30.08,ENE,78,0.0,10.0,97,0.00,,---,0.00,VWS V13.01,2013-09-15 12:28:00,
2013-09-15 07:29:00,57.7,56.9,30.08,ENE,78,0.0,10.0,97,0.00,,---,0.00,VWS V13.01,2013-09-15 12:29:00,
2013-09-15 07:30:00,57.8,57.0,30.08,ENE,78,0.0,10.0,97,0.00,,---,0.00,VWS V13.01,2013-09-15 12:30:00,
2013-09-15 07:31:00,57.8,57.0,30.08,ENE,78,0.0,1.0,97,0.00,,---,0.00,VWS V13.01,2013-09-15 12:31:00,
2013-09-15 07:32:00,57.9,57.1,30.08,ENE,78,1.0,3.0,97,0.00,,---,0.00,VWS V13.01,2013-09-15 12:32:00,
2013-09-15 07:33:00,58.0,57.2,30.08,ENE,78,0.0,3.0,97,0.00,,---,0.00,VWS V13.01,2013-09-15 12:33:00,
2013-09-15 07:34:00,58.1,57.3,30.08,ENE,78,0.0,3.0,97,0.00,,---,0.00,VWS V13.01,2013-09-15 12:34:00,
2013-09-15 07:35:00,58.3,57.5,30.08,ENE,78,0.0,3.0,97,0.00,,---,0.00,VWS V13.01,2013-09-15 12:35:00,
2013-09-15 07:36:00,58.4,57.6,30.08,ENE,78,3.0,3.0,97,0.00,,---,0.00,VWS V13.01,2013-09-15 12:36:00,
2013-09-15 07:37:00,58.5,57.7,30.08,ENE,78,1.0,3.0,97,0.00,,---,0.00,VWS V13.01,2013-09-15 12:37:00,
2013-09-15 07:38:00,58.6,57.8,30.08,ENE,78,2.0,3.0,97,0.00,,---,0.00,VWS V13.01,2013-09-15 12:38:00,
2013-09-15 07:39:00,58.7,57.8,30.08,ENE,78,0.0,3.0,97,0.00,,---,0.00,VWS V13.01,2013-09-15 12:39:00,
2013-09-15 07:40:00,59.0,58.2,30.08,ENE,78,3.0,3.0,97,0.00,,---,0.00,VWS V13.01,2013-09-15 12:40:00,
2013-09-15 07:41:00,59.0,58.2,30.08,ENE,78,1.0,3.0,97,0.00,,---,0.00,VWS V13.01,2013-09-15 12:41:00,
2013-09-15 07:42:00,59.0,58.2,30.08,ENE,78,2.0,3.0,97,0.00,,---,0.00,VWS V13.01,2013-09-15 12:42:00,
2013-09-15 07:43:00,59.0,58.2,30.08,ENE,78,0.0,3.0,97,0.00,,---,0.00,VWS V13.01,2013-09-15 12:43:00,
2013-09-15 07:44:00,59.2,58.3,30.08,ENE,78,0.0,3.0,97,0.00,,---,0.00,VWS V13.01,2013-09-15 12:44:00,
2013-09-15 07:45:00,59.3,58.5,30.08,ENE,78,2.0,3.0,97,0.00,,---,0.00,VWS V13.01,2013-09-15 12:45:00,
2013-09-15 07:46:00,59.5,58.7,30.08,ENE,78,1.0,3.0,97,0.00,,---,0.00,VWS V13.01,2013-09-15 12:46:00,
2013-09-15 07:47:00,59.6,58.8,30.08,ENE,78,0.0,3.0,97,0.00,,---,0.00,VWS V13.01,2013-09-15 12:47:00,
2013-09-15 07:48:00,59.7,58.6,30.08,ENE,78,3.0,4.0,96,0.00,,---,0.00,VWS V13.01,2013-09-15 12:48:00,
2013-09-15 07:49:00,59.6,58.5,30.08,ENE,78,3.0,5.0,96,0.00,,---,0.00,VWS V13.01,2013-09-15 12:49:00,
2013-09-15 07:50:00,59.6,58.5,30.08,ENE,78,1.0,5.0,96,0.00,,---,0.00,VWS V13.01,2013-09-15 12:50:00,
2013-09-15 07:51:00,59.6,58.5,30.08,ENE,78,0.0,5.0,96,0.00,,---,0.00,VWS V13.01,2013-09-15 12:51:00,
2013-09-15 07:52:00,59.8,58.7,30.08,ENE,78,0.0,5.0,96,0.00,,---,0.00,VWS V13.01,2013-09-15 12:52:00,
2013-09-15 07:53:00,59.9,58.8,30.08,ENE,78,0.0,5.0,96,0.00,,---,0.00,VWS V13.01,2013-09-15 12:53:00,
2013-09-15 07:54:00,60.1,59.0,30.08,ENE,78,0.0,5.0,96,0.00,,---,0.00,VWS V13.01,2013-09-15 12:54:00,
2013-09-15 07:55:00,60.2,58.8,30.08,ENE,78,0.0,5.0,95,0.00,,---,0.00,VWS V13.01,2013-09-15 12:55:00,
2013-09-15 07:56:00,60.3,58.9,30.08,ENE,78,0.0,5.0,95,0.00,,---,0.00,VWS V13.01,2013-09-15 12:56:00,
2013-09-15 07:57:00,60.4,59.0,30.08,ENE,78,2.0,5.0,95,0.00,,---,0.00,VWS V13.01,2013-09-15 12:57:00,
2013-09-15 07:58:00,60.6,59.2,30.08,ENE,78,0.0,5.0,95,0.00,,---,0.00,VWS V13.01,2013-09-15 12:58:00,
2013-09-15 07:59:00,60.8,59.4,30.08,East,79,1.0,5.0,95,0.00,,---,0.00,VWS V13.01,2013-09-15 12:59:00,
2013-09-15 08:00:00,60.9,59.5,30.08,ENE,78,0.0,5.0,95,0.00,,---,0.00,VWS V13.01,2013-09-15 13:00:00,
2013-09-15 08:01:00,61.1,59.7,30.08,ENE,78,2.0,3.0,95,0.00,,---,0.00,VWS V13.01,2013-09-15 13:01:00,
2013-09-15 08:02:00,61.2,59.8,30.08,ENE,78,1.0,4.0,95,0.00,,---,0.00,VWS V13.01,2013-09-15 13:02:00,
2013-09-15 08:03:00,61.3,59.6,30.08,ENE,78,4.0,4.0,94,0.00,,---,0.00,VWS V13.01,2013-09-15 13:03:00,
2013-09-15 08:04:00,61.4,59.7,30.08,ENE,78,2.0,4.0,94,0.00,,---,0.00,VWS V13.01,2013-09-15 13:04:00,
2013-09-15 08:05:00,61.5,59.8,30.08,ENE,78,0.0,4.0,94,0.00,,---,0.00,VWS V13.01,2013-09-15 13:05:00,
2013-09-15 08:06:00,61.6,59.9,30.08,ENE,78,0.0,4.0,94,0.00,,---,0.00,VWS V13.01,2013-09-15 13:06:00,
2013-09-15 08:07:00,61.7,59.7,30.08,ENE,78,2.0,5.0,93,0.00,,---,0.00,VWS V13.01,2013-09-15 13:07:00,
2013-09-15 08:08:00,61.8,59.8,30.08,ENE,78,3.0,5.0,93,0.00,,---,0.00,VWS V13.01,2013-09-15 13:08:00,
2013-09-15 08:09:00,61.8,59.8,30.08,ENE,78,1.0,5.0,93,0.00,,---,0.00,VWS V13.01,2013-09-15 13:09:00,
2013-09-15 08:10:00,61.9,59.5,30.08,ENE,78,3.0,5.0,92,0.00,,---,0.00,VWS V13.01,2013-09-15 13:10:00,
2013-09-15 08:11:00,62.0,59.7,30.08,ENE,78,2.0,5.0,92,0.00,,---,0.00,VWS V13.01,2013-09-15 13:11:00,
2013-09-15 08:12:00,62.0,59.7,30.08,ENE,78,0.0,5.0,92,0.00,,---,0.00,VWS V13.01,2013-09-15 13:12:00,
2013-09-15 08:13:00,62.1,59.8,30.08,ENE,78,4.0,5.0,92,0.00,,---,0.00,VWS V13.01,2013-09-15 13:13:00,
2013-09-15 08:14:00,62.2,59.5,30.08,ENE,78,4.0,5.0,91,0.00,,---,0.00,VWS V13.01,2013-09-15 13:14:00,
2013-09-15 08:15:00,62.2,59.5,30.08,ENE,78,1.0,5.0,91,0.00,,---,0.00,VWS V13.01,2013-09-15 13:15:00,
2013-09-15 08:16:00,62.3,59.6,30.08,ENE,78,3.0,5.0,91,0.00,,---,0.00,VWS V13.01,2013-09-15 13:16:00,
2013-09-15 08:17:00,62.4,59.7,30.08,ENE,78,0.0,5.0,91,0.00,,---,0.00,VWS V13.01,2013-09-15 13:17:00,
2013-09-15 08:18:00,62.5,59.8,30.08,ENE,78,1.0,5.0,91,0.00,,---,0.00,VWS V13.01,2013-09-15 13:18:00,
2013-09-15 08:19:00,62.6,59.9,30.08,ENE,78,2.0,5.0,91,0.00,,---,0.00,VWS V13.01,2013-09-15 13:19:00,
2013-09-15 08:20:00,62.8,60.1,30.08,ENE,78,3.0,5.0,91,0.00,,---,0.00,VWS V13.01,2013-09-15 13:20:00,
2013-09-15 08:21:00,62.8,60.1,30.08,ENE,78,3.0,5.0,91,0.00,,---,0.00,VWS V13.01,2013-09-15 13:21:00,
2013-09-15 08:22:00,63.0,60.0,30.08,ENE,78,3.0,5.0,90,0.00,,---,0.00,VWS V13.01,2013-09-15 13:22:00,
2013-09-15 08:23:00,63.0,60.0,30.08,ENE,78,1.0,5.0,90,0.00,,---,0.00,VWS V13.01,2013-09-15 13:23:00,
2013-09-15 08:24:00,63.2,60.2,30.08,ENE,78,1.0,5.0,90,0.00,,---,0.00,VWS V13.01,2013-09-15 13:24:00,
2013-09-15 08:25:00,63.3,60.3,30.08,ENE,78,5.0,5.0,90,0.00,,---,0.00,VWS V13.01,2013-09-15 13:25:00,
2013-09-15 08:26:00,63.5,60.8,30.08,ENE,78,3.0,5.0,91,0.00,,---,0.00,VWS V13.01,2013-09-15 13:26:00,
2013-09-15 08:27:00,63.7,60.4,30.08,ENE,78,2.0,5.0,89,0.00,,---,0.00,VWS V13.01,2013-09-15 13:27:00,
2013-09-15 08:28:00,63.8,60.5,30.08,ENE,78,3.0,5.0,89,0.00,,---,0.00,VWS V13.01,2013-09-15 13:28:00,
2013-09-15 08:29:00,63.9,60.6,30.08,ENE,78,2.0,5.0,89,0.00,,---,0.00,VWS V13.01,2013-09-15 13:29:00,
2013-09-15 08:30:00,64.0,60.7,30.08,ENE,78,4.0,5.0,89,0.00,,---,0.00,VWS V13.01,2013-09-15 13:30:00,
2013-09-15 08:31:00,64.1,60.2,30.08,ENE,78,3.0,5.0,87,0.00,,---,0.00,VWS V13.01,2013-09-15 13:31:00,
2013-09-15 08:32:00,64.1,60.2,30.08,ENE,78,1.0,6.0,87,0.00,,---,0.00,VWS V13.01,2013-09-15 13:32:00,
2013-09-15 08:33:00,64.1,60.2,30.08,ENE,78,2.0,6.0,87,0.00,,---,0.00,VWS V13.01,2013-09-15 13:33:00,
2013-09-15 08:34:00,64.2,60.3,30.08,ENE,78,2.0,6.0,87,0.00,,---,0.00,VWS V13.01,2013-09-15 13:34:00,
2013-09-15 08:35:00,64.3,60.3,30.08,ENE,78,3.0,6.0,87,0.00,,---,0.00,VWS V13.01,2013-09-15 13:35:00,
2013-09-15 08:36:00,64.5,60.5,30.08,ENE,78,4.0,6.0,87,0.00,,---,0.00,VWS V13.01,2013-09-15 13:36:00,
2013-09-15 08:37:00,64.6,60.7,30.08,ENE,78,2.0,6.0,87,0.00,,---,0.00,VWS V13.01,2013-09-15 13:37:00,
2013-09-15 08:38:00,64.7,60.8,30.08,ENE,78,4.0,6.0,87,0.00,,---,0.00,VWS V13.01,2013-09-15 13:38:00,
2013-09-15 08:39:00,64.8,60.8,30.08,ENE,78,3.0,6.0,87,0.00,,---,0.00,VWS V13.01,2013-09-15 13:39:00,
2013-09-15 08:40:00,64.9,60.9,30.08,ENE,78,3.0,6.0,87,0.00,,---,0.00,VWS V13.01,2013-09-15 13:40:00,
2013-09-15 08:41:00,65.0,61.0,30.08,ENE,78,2.0,6.0,87,0.00,,---,0.00,VWS V13.01,2013-09-15 13:41:00,
2013-09-15 08:42:00,65.1,60.8,30.08,ENE,78,2.0,6.0,86,0.00,,---,0.00,VWS V13.01,2013-09-15 13:42:00,